| time (UTC) | temp F | wind direction | speed knots | gust knots | rain 1hr in | rain 24hr in | rain mn in | humidity % | barometer mb |
| 20260505150149 | 55 | 340 | 1.7 | 3.5 | 0.00 | 0.00 | 0.00 | 48 | 874.9 |
| 20260505140132 | 53 | 309 | 0.9 | 1.7 | 0.00 | 0.00 | 0.00 | 53 | 874.5 |
| 20260505130127 | 51 | 22 | 0.0 | 2.6 | 0.00 | 0.00 | 0.00 | 57 | 873.8 |
| 20260505120138 | 50 | 73 | 1.7 | 4.3 | 0.00 | 0.00 | 0.00 | 57 | 873.7 |
| 20260505110117 | 51 | 71 | 1.7 | 4.3 | 0.00 | 0.00 | 0.00 | 55 | 873.6 |
| 20260505100139 | 52 | 84 | 1.7 | 4.3 | 0.00 | 0.00 | 0.00 | 54 | 873.5 |
| 20260505090113 | 52 | 74 | 2.6 | 4.3 | 0.00 | 0.00 | 0.00 | 53 | 873.6 |
| 20260505080153 | 52 | 105 | 3.5 | 7.0 | 0.00 | 0.00 | 0.00 | 52 | 873.4 |
| 20260505070123 | 53 | 90 | 1.7 | 4.3 | 0.00 | 0.00 | 0.00 | 51 | 873.4 |
| 20260505060137 | 53 | 333 | 1.7 | 5.2 | 0.00 | 0.00 | 0.00 | 51 | 873.1 |
| 20260505052731 | 53 | 14 | 1.7 | 7.8 | 0.00 | 0.00 | 0.00 | 54 | 873.4 |
| 20260505040156 | 53 | 5 | 2.6 | 7.0 | 0.00 | 0.00 | 0.00 | 58 | 873.2 |
| 20260505030140 | 54 | 352 | 2.6 | 5.2 | 0.00 | 0.00 | 0.00 | 57 | 872.9 |
| 20260505020145 | 57 | 84 | 2.6 | 7.0 | 0.00 | 0.00 | 0.00 | 52 | 872.9 |
| 20260505010138 | 59 | 311 | 5.2 | 12.2 | 0.00 | 0.00 | 0.00 | 46 | 873.2 |
| 20260505000111 | 59 | 334 | 5.2 | 12.2 | 0.00 | 0.00 | 0.00 | 43 | 873.4 |
| 20260504230119 | 59 | 327 | 5.2 | 13.9 | 0.00 | 0.00 | 0.00 | 38 | 873.4 |
| 20260504220115 | 59 | 322 | 6.1 | 14.8 | 0.00 | 0.00 | 0.00 | 38 | 873.8 |
| 20260504210125 | 58 | 333 | 5.2 | 13.0 | 0.00 | 0.00 | 0.00 | 37 | 873.8 |
| 20260504200131 | 59 | 338 | 5.2 | 13.0 | 0.00 | 0.00 | 0.00 | 38 | 874.0 |
| 20260504190110 | 58 | 289 | 5.2 | 12.2 | 0.00 | 0.00 | 0.00 | 40 | 874.0 |
| 20260504180150 | 58 | 27 | 3.5 | 10.4 | 0.00 | 0.00 | 0.00 | 45 | 874.0 |
| 20260504170136 | 56 | 284 | 4.3 | 8.7 | 0.00 | 0.00 | 0.00 | 47 | 873.8 |
| 20260504160103 | 56 | 249 | 1.7 | 4.3 | 0.00 | 0.00 | 0.00 | 48 | 874.0 |